Miscellaneous Local Product
Issued by NWS Hastings, NE

Home | Current Version | Previous Version | Graphics & Text | Print | Product List | Glossary On
Versions: 1 2 3 4 5 6 7 8 9 10 11 12 13 14 15 16 17 18 19 20 21 22 23 24 25 26 27 28 29 30 31 32 33 34 35 36 37 38 39 40 41 42 43 44 45 46 47 48 49 50
786
AXUS43 KGID 200902
MISGRI

GID CWA HOURLY WEATHER ROUNDUP
NATIONAL WEATHER SERVICE HASTINGS NE
400 AM CDT FRI OCT 20 2017

NOTE: "FAIR" INDICATES FEW OR NO CLOUDS BELOW 12,000 FEET WITH NO
SIGNIFICANT WEATHER AND/OR OBSTRUCTIONS TO VISIBILITY.

...SOUTH CENTRAL NEBRASKA...

CITY           SKY/WX    TMP DP  RH WIND       PRES   REMARKS
GRAND ISLAND   FAIR      57  49  74 S12       29.90F
HASTINGS       FAIR      58  48  69 S14       29.91F
KEARNEY        FAIR      57  47  69 S12       29.88F
ORD            CLEAR     55  46  71 S9        29.84F
YORK             N/A     55  50  82 S10       29.93F
AURORA         FAIR      56  47  73 S10       29.91F
LEXINGTON      PTCLDY    55  46  72 S9        29.85F
HOLDREGE       FAIR      57  48  72 S14       29.87F
HEBRON         FAIR      58  51  78 S10       29.95F

...NEBRASKA PANHANDLE...

CITY           SKY/WX    TMP DP  RH WIND       PRES   REMARKS
CHADRON        CLEAR     54  34  46 S5        29.69F
ALLIANCE       CLEAR     40  37  89 S8        29.75F WCI  34
SCOTTSBLUFF    CLEAR     45  32  60 E6        29.75F
SIDNEY         MOCLDY    45  41  86 S10       29.77F

...WESTERN AND NORTH CENTRAL NEBRASKA...

CITY           SKY/WX    TMP DP  RH WIND       PRES   REMARKS
VALENTINE      PTCLDY    59  43  55 SW14      29.74F
AINSWORTH      PTCLDY    57  45  62 S13       29.77F
ONEILL         CLEAR     57  47  68 S13G18    29.81F
BROKEN BOW     PTCLDY    56  45  66 S9        29.84F
IMPERIAL       PTCLDY    57  45  64 S17       29.79F
NORTH PLATTE   PTCLDY    59  46  62 S14       29.80F
MCCOOK         MOCLDY    57  46  66 S9        29.83F

...EASTERN NEBRASKA...

CITY           SKY/WX    TMP DP  RH WIND       PRES   REMARKS
NORFOLK        FAIR      59  47  64 S20       29.87F
SO SIOUX CITY  FAIR      50  48  93 E8        29.91F
TEKAMAH        FAIR      57  48  72 S8        29.94F
COLUMBUS       FAIR      59  49  69 S14       29.92F
ALBION         FAIR      58  48  70 S9        29.88F
OMAHA EPPLEY   MOCLDY    56  49  77 S12       29.98S
OFFUTT AFB     FAIR      54  50  86 SE7       29.98S
MILLARD        FAIR      58  51  78 SE3       29.97F
LINCOLN        FAIR      57  50  77 S10       29.96F
NEBRASKA CITY  FAIR      57  55  93 S10       30.00F
BEATRICE       FAIR      59  52  78 S12       29.98S
FALLS CITY     FAIR      56  52  86 S8        30.02F

...NORTHERN KANSAS...

CITY           SKY/WX    TMP DP  RH WIND       PRES   REMARKS
GOODLAND       PTCLDY    54  47  77 S17G28    29.82F
HILL CITY      FAIR      60  47  61 S15G24    29.88F
NORTON         SUNNY     57  43  58 S12G17    29.86F
PHILLIPSBURG   CLEAR     61  46  59 SE6       29.89F
SMITH CENTER   CLEAR     55  48  76 SE9       29.93F
HAYS           FAIR      59  48  67 S16       29.92F
RUSSELL        FAIR      58  51  78 S17G25    29.93F
CONCORDIA      FAIR      60  53  77 S21G29    29.95F
SALINA         FAIR      63  54  72 S13G24    29.98F
TOPEKA         FAIR      61  54  77 S10       30.04F



USA.gov is the U.S. government's official web portal to all federal, state and local government web resources and services.